STARLINK-1640, 46173

Orbit data source: Space-Track

STARLINK-1640, 46173 is a payload satellite owned by SpaceX/Seattle (US) in LEO that was launched on Tue, 18 Aug 2020 UTC via an FALCON 9 launch vehicle from the Air Force Eastern Test Range (AFETR). Payload-class satellites include a variety of spacecraft equipped with specific instruments for various scientific and technological missions. These include communications satellites like Starlink; space stations such as the ISS; scientific satellites like the Hubble; Earth observation satellites from companies like Planet Labs, Umbra, and HawkEye 360; GPS; miniature CubeSats for education and research; and military/defense satellites.

Loading next visibility...
Identifier
46173, 2020-057BJ
Orbit
LEO
Country
Flag of USUS
Related business
Manufacturer
SpaceX/Seattle
Mission
Partially operational Commercial Communications
Bus & Motor
STARLINK, Unknown motor
Mass
260 kg wet, ~248 kg dry
Launch date (UTC)
2020-08-18 (6 years ago)
Launch vehicle
FALCON 9
Launch site
Air Force Eastern Test Range (AFETR)
Object type
Payload
Rocket body
Debris
Shape & HBR
Box + 1 Pan, 10.1 m
Radar Cross Section
13.562 m², Large (>1 m²)

Expand to show TLE details & history
Last TLE update: 2 days ago

TLE from 2 days ago
0 STARLINK-1640
1 46173U 20057BJ  26171.36300455  .00126174  00000-0  81802-3 0  9991
2 46173  53.0390 155.4864 0005704  59.4876 300.6705 15.75134681322381
Epoch: 2026-06-20T08:42Z
TLE epoch observation values (Epoch: 2026-06-20T08:42:43.593Z)
Latitude
-0.00001°
Longitude
116.22605°
Altitude
343.198 km
Speed
7.705 km/s
True Right ascension
10h 21m 56s
True Declination
0° 00' 00"
Sunlit
Object was in daylight at epoch
Visualization orbit readout
Latitude
Unknown
Longitude
Unknown
Altitude
Unknown
Speed
Unknown
Apparent Right ascension
Unknown
Apparent Declination
Unknown
Sunlit
N/A
Visualization observer readout
Local Sidereal Time
21:56:19
Azimuth
Unknown
Elevation
Unknown
Doppler factor
Unknown
Orbital elements
Apogee altitude
348.364 km
Perigee altitude
340.695 km
Semi-major axis
6,722.666 km
Eccentricity
0.00057
Inclination
53.039°
RAAN
155.4864°
Arg. of periapsis
59.4876°
True anomaly
300.61426°
Mean anomaly
300.6705°
Eccentric anomaly
300.64238°
Mean motion
3.93759 °/min
Orbital period
91.43 mins
BSTAR
0.00081802
Loading maneuver chart data...
Computing Atmospheric mass density...

Documentation

Showing up to 5 results
|